GFSSE_850_temp_069.txt.gz
Temp
19 19 19 19 19 19 19 18 18 18 18 18 18 18 18 18 18 17 17 17 17 17 17 16 15 14 14 14 14 15 15 14 15 15 14 13 13 13 14 13 13 13 13
19 18 18 18 19 19 18 18 18 18 18 18 18 18 17 17 17 17 17 17 17 16 16 15 14 14 14 14 14 14 14 14 14 14 13 13 13 13 13 13 12 13 12
19 18 18 18 18 19 19 18 17 17 17 17 18 17 17 17 17 16 16 16 16 15 14 15 14 14 14 14 14 14 14 14 14 13 13 12 12 11 12 12 12 11 11
18 18 18 18 18 18 18 18 17 17 17 17 17 17 17 16 16 16 15 15 15 14 14 14 14 14 14 14 14 14 14 13 13 13 12 11 11 11 11 11 12 13 13
17 18 17 17 18 18 18 17 17 17 17 16 16 17 17 17 16 15 14 14 14 14 13 14 14 14 14 14 13 13 12 12 12 13 11 11 11 11 11 13 13 13 13
19 17 17 17 16 16 17 16 16 16 16 16 16 16 16 16 15 14 14 14 14 14 13 14 14 14 13 13 13 12 11 11 12 12 11 10 11 10 12 12 12 12 12
19 17 16 16 16 15 16 16 15 15 15 16 16 15 15 15 14 14 14 14 13 13 13 14 13 13 13 13 12 12 11 11 11 12 11 10 9 11 11 13 13 13 11
18 17 17 15 15 15 15 15 15 14 14 14 14 14 13 14 14 13 14 13 13 12 14 14 13 13 13 13 12 12 11 11 12 12 11 9 9 10 10 13 13 13 13
18 17 16 15 15 16 14 15 15 15 14 13 12 12 13 14 14 13 13 13 13 12 14 14 13 13 13 13 12 11 12 12 12 11 10 9 8 10 13 13 13 13 13
17 17 16 15 14 15 14 14 15 14 14 15 12 12 12 14 14 13 13 13 14 14 14 14 13 13 13 13 12 12 11 12 12 11 9 8 10 10 11 13 13 13 12
16 16 16 15 14 14 14 14 14 13 13 14 12 10 11 13 13 13 13 13 14 14 14 13 14 13 12 12 12 12 11 12 12 11 10 8 9 9 12 12 12 12 12
16 15 15 15 14 14 14 14 13 13 13 14 13 13 12 12 13 13 13 13 13 13 14 13 13 12 12 12 12 11 12 12 12 11 11 9 10 11 12 12 12 12 12
15 14 15 15 14 13 13 14 14 14 13 12 12 11 11 12 12 12 12 14 13 13 13 13 12 12 12 12 12 11 11 11 12 12 11 10 10 10 12 11 12 11 11
14 13 14 13 12 12 13 13 14 13 12 12 11 12 11 12 12 12 13 14 14 13 13 13 12 12 12 12 12 10 11 12 12 12 12 10 11 10 10 11 11 11 11
15 14 13 12 12 12 12 12 12 11 11 12 11 11 11 12 12 13 13 13 13 13 13 13 12 12 12 12 12 11 11 12 12 12 12 10 9 10 10 11 11 11 11
15 13 12 11 11 11 13 13 11 10 11 11 11 11 11 12 13 12 13 13 12 13 13 13 13 12 11 12 12 11 12 12 12 12 12 11 9 10 11 11 11 11 10
15 14 11 12 12 11 12 12 11 11 11 12 11 11 11 12 12 12 13 12 12 12 12 12 12 12 11 11 11 11 12 12 11 11 12 11 10 11 11 11 10 10 10
15 13 11 11 11 11 12 12 12 11 11 11 12 11 11 12 12 12 12 12 12 12 11 11 11 11 11 11 11 11 11 11 11 11 11 11 10 10 9 10 10 10 9
15 12 11 11 11 11 11 11 11 11 11 11 11 11 11 11 12 12 12 12 12 12 11 11 11 11 11 11 11 11 11 11 11 11 10 11 11 11 11 10 10 10 9
14 12 12 11 11 10 10 10 10 10 10 10 10 10 10 11 11 12 12 12 12 12 12 11 11 11 11 11 11 11 11 11 10 10 10 10 10 10 10 10 10 10 10
14 12 11 10 10 10 9 10 10 10 10 10 10 10 10 10 10 11 11 11 12 12 12 11 12 12 11 11 11 11 11 11 11 10 10 10 10 10 10 10 9 10 9
15 13 11 10 10 10 10 10 11 11 9 9 9 10 10 10 10 10 11 11 11 11 11 11 12 12 12 12 11 11 11 11 11 11 10 10 10 10 10 9 10 10 10
15 13 12 10 10 9 10 9 9 9 9 9 9 9 9 9 10 10 11 10 10 10 10 10 12 12 12 12 12 12 11 11 11 10 10 10 10 10 9 9 10 10 10
15 13 12 10 9 10 10 10 9 9 9 9 9 9 9 9 9 10 10 11 10 10 10 11 12 12 12 12 11 11 11 11 11 11 11 10 10 10 10 10 10 10 10
16 14 13 12 9 10 10 10 10 9 9 9 9 9 9 9 10 10 10 10 11 11 11 11 11 12 12 12 11 12 11 11 11 11 11 11 10 10 10 10 10 10 10
16 14 13 12 11 9 9 9 10 10 9 9 9 9 9 10 10 9 10 11 11 11 11 12 11 11 11 12 12 11 12 11 11 11 11 11 11 11 11 11 10 10 10

GFSSE_850_temp_072.txt.gz
Temp
19 19 19 19 19 19 20 19 19 19 19 19 18 18 17 16 17 16 16 16 16 17 17 17 16 15 15 15 14 14 15 15 15 15 14 14 14 14 13 13 13 13 13
20 19 18 18 18 19 20 19 19 19 19 18 18 17 17 16 16 16 16 16 16 16 16 16 15 14 14 14 15 15 15 14 14 13 14 14 13 13 13 13 13 13 13
20 20 19 18 18 18 19 19 19 18 18 18 18 18 17 17 16 16 16 16 16 16 16 15 13 13 14 14 14 14 14 14 13 13 13 13 12 13 12 12 12 13 12
20 20 20 19 18 18 18 18 18 18 18 18 18 17 17 17 17 17 16 16 16 16 15 13 13 13 14 14 14 13 13 13 12 12 13 12 12 11 11 12 12 12 12
21 20 20 18 17 17 17 17 18 18 17 17 17 17 17 17 16 16 17 16 15 15 14 13 12 13 13 13 13 13 13 13 12 12 11 11 11 11 11 11 11 12 12
21 20 18 17 17 17 17 17 17 17 17 17 17 17 17 16 16 16 15 15 14 14 13 12 13 13 13 13 12 12 12 12 13 11 11 11 11 10 11 12 13 13 13
19 19 18 17 16 16 16 16 16 16 16 16 17 17 16 16 16 15 14 14 14 14 13 14 13 12 12 12 12 12 12 12 12 10 11 11 10 10 12 13 13 13 13
19 18 17 16 15 15 15 15 15 16 16 15 15 15 15 15 14 14 14 14 14 13 13 13 12 12 12 12 12 12 12 12 12 11 10 10 10 10 12 13 13 13 13
19 18 17 16 15 15 15 14 14 14 14 13 12 11 12 12 13 13 14 14 14 14 13 12 12 12 11 11 12 12 11 11 11 11 9 9 9 9 9 10 12 13 13
18 17 16 16 15 14 14 14 15 15 14 12 12 12 11 12 12 13 13 14 14 14 13 12 12 12 11 12 12 12 11 11 12 12 9 8 9 8 8 9 12 12 13
17 17 17 16 15 14 14 13 14 15 14 14 13 13 12 12 12 13 13 13 13 14 13 12 12 12 12 11 12 12 12 12 12 12 11 8 9 7 8 11 12 12 12
17 16 16 16 15 13 14 13 13 13 13 12 13 12 13 12 12 12 13 13 14 14 13 12 12 12 12 12 11 12 12 12 12 12 12 9 8 7 9 11 12 12 12
17 16 15 15 15 14 13 13 13 12 12 12 13 12 14 13 12 12 12 12 14 13 13 12 12 12 12 12 11 12 12 11 12 12 11 9 9 10 11 12 12 12 12
17 15 15 14 13 13 12 12 12 12 13 13 13 13 13 13 11 12 12 12 13 14 13 12 12 12 11 11 11 11 12 11 12 12 11 10 10 11 11 12 12 11 12
16 15 15 13 12 12 12 12 13 13 12 12 12 12 12 11 13 12 12 13 13 14 13 13 12 12 11 11 11 12 11 11 12 11 12 12 12 12 12 12 12 11 11
16 16 15 13 12 12 12 13 13 13 11 10 11 11 11 12 13 12 12 13 13 14 13 13 12 12 12 11 11 12 11 11 12 11 12 12 11 12 11 11 11 11 11
16 16 14 13 11 11 12 13 13 12 10 10 10 11 11 12 13 13 13 13 13 13 13 12 12 12 12 11 11 11 11 11 11 11 12 12 11 11 12 11 11 11 11
16 15 14 13 11 11 12 12 13 12 11 11 11 10 11 12 12 12 13 13 13 13 13 12 12 11 12 11 11 11 12 11 11 11 11 11 12 12 12 11 11 11 11
17 15 14 11 11 11 11 11 12 12 11 11 11 11 11 11 12 13 13 13 13 13 12 12 11 11 12 11 11 11 11 11 11 11 11 11 12 12 12 11 11 10 10
16 15 13 10 11 11 11 11 10 11 11 11 11 11 11 11 12 12 13 13 12 12 12 12 11 11 11 11 11 11 11 11 11 11 11 11 10 11 11 11 11 10 10
15 15 14 11 11 11 10 10 10 11 11 11 11 11 11 11 11 12 12 12 12 12 11 11 11 11 11 11 11 10 10 10 10 10 10 10 10 10 10 10 10 10 10
17 15 13 12 10 10 10 9 10 9 10 11 10 10 10 10 11 11 11 12 12 12 11 11 11 11 11 11 11 11 10 9 10 10 10 10 10 10 10 10 10 10 11
16 15 14 12 11 10 10 9 9 10 9 9 10 10 10 10 10 10 10 10 11 12 11 11 11 11 11 11 11 11 10 10 10 10 10 10 10 10 10 10 10 10 10
17 15 14 12 11 10 10 9 9 10 10 9 10 10 10 10 10 9 10 10 11 11 11 11 11 11 11 11 11 11 11 11 10 10 10 10 10 10 10 10 10 10 10
17 15 14 13 12 10 10 10 9 10 9 10 9 9 9 9 9 9 9 10 10 10 11 11 11 11 11 12 11 11 11 11 11 11 11 11 10 10 10 10 10 10 10
16 15 14 13 12 11 10 10 11 10 10 9 9 9 9 9 9 9 10 10 9 10 10 10 10 10 10 12 12 12 11 11 11 11 11 11 11 11 11 11 10 10 10

GFSSE_850_temp_075.txt.gz
Temp
20 19 19 19 19 19 19 20 19 18 18 18 17 18 18 18 17 17 17 17 17 17 17 16 16 15 15 15 15 15 15 15 15 14 14 14 14 14 14 14 14 13 14
20 20 20 19 19 19 18 19 20 19 18 17 17 17 17 17 17 17 17 17 17 17 16 16 15 15 15 15 15 15 15 15 14 14 14 14 14 14 13 13 13 13 13
21 21 21 20 19 18 18 19 19 19 18 18 17 17 17 17 17 16 16 16 16 16 16 15 15 14 14 15 14 14 14 14 14 13 14 13 13 13 13 13 13 13 13
21 21 21 20 19 18 18 18 18 18 18 17 17 16 16 16 16 16 16 16 16 16 15 14 14 14 14 14 14 14 14 14 13 13 13 13 13 13 12 12 12 12 12
21 20 20 20 18 18 18 18 18 18 18 18 17 17 17 15 15 15 15 15 15 15 14 14 14 14 14 14 13 14 13 13 13 13 13 12 12 11 11 11 12 13 13
21 20 19 19 18 17 17 17 17 17 17 17 17 17 16 16 16 16 15 15 14 15 13 14 14 13 13 13 13 13 13 13 12 12 12 11 11 11 11 12 12 12 13
21 20 19 18 17 17 16 17 17 17 17 16 17 16 16 16 16 16 16 15 14 14 14 13 13 13 13 13 13 12 12 12 12 11 11 11 11 10 11 11 12 12 13
20 19 18 17 16 15 15 15 15 16 16 16 16 16 14 15 14 15 15 14 14 13 14 13 12 13 12 12 12 12 12 12 12 11 10 10 10 10 10 10 11 11 12
20 19 18 16 16 15 15 15 15 15 14 14 12 12 12 12 12 13 14 14 13 13 13 12 12 13 12 12 12 12 12 12 12 11 10 10 9 9 9 10 11 11 12
18 18 18 17 16 15 15 15 14 14 13 13 12 11 12 12 13 12 13 13 13 13 13 12 12 12 12 12 12 12 12 12 12 12 10 9 9 9 10 10 10 10 11
18 17 17 17 16 15 14 14 13 13 14 14 15 13 12 11 12 12 12 14 13 13 12 12 11 12 11 12 12 12 12 12 11 12 11 8 8 9 9 10 9 9 10
18 18 17 17 16 15 12 13 14 13 14 13 14 13 12 13 12 12 12 13 12 12 12 11 11 11 11 11 11 11 11 12 12 12 12 8 8 8 10 11 10 9 9
18 17 17 16 15 14 13 12 12 13 12 12 12 12 12 12 13 12 12 12 12 11 11 11 11 11 11 12 12 11 12 12 11 12 11 9 8 8 10 9 10 11 11
18 17 16 15 14 13 13 12 12 12 12 12 12 12 12 12 12 12 12 12 11 11 11 11 11 11 12 12 11 12 12 12 12 12 11 8 8 9 9 9 11 12 12
17 17 16 15 14 13 12 12 12 12 12 12 11 12 11 12 13 13 11 11 12 11 11 11 11 11 11 11 11 12 11 11 11 12 12 8 9 9 10 8 11 11 11
17 17 16 16 14 12 11 12 12 12 12 12 11 11 11 11 12 11 12 11 12 11 11 11 10 11 11 11 11 11 11 11 11 11 11 10 10 10 12 10 11 11 11
18 17 17 16 13 12 11 11 12 12 12 11 11 11 11 10 11 12 12 12 12 12 12 11 11 11 11 11 11 11 11 11 11 11 11 11 10 10 11 12 11 11 11
17 17 17 16 14 12 11 12 12 12 11 10 11 11 10 11 11 11 12 12 12 12 12 12 11 10 10 11 11 11 11 11 11 11 11 11 11 11 11 11 11 11 11
17 17 17 16 13 12 11 12 12 12 11 10 10 10 10 10 10 11 13 12 12 12 12 12 11 11 11 11 11 11 11 11 11 11 11 10 10 10 11 11 11 11 11
16 16 16 16 14 11 11 13 12 12 10 10 11 11 10 11 11 11 13 12 12 12 12 11 11 11 11 11 11 11 11 11 11 11 11 10 10 10 11 11 10 10 11
16 16 16 15 14 10 11 10 11 12 10 10 11 10 10 10 11 12 12 12 12 12 12 11 11 11 11 11 11 11 10 10 10 10 10 10 10 10 10 10 10 10 11
16 16 15 15 14 13 11 10 10 10 11 10 11 11 11 11 11 10 11 12 12 12 12 11 11 11 11 11 10 10 9 8 9 10 10 10 10 10 10 10 10 10 10
16 16 16 14 14 13 11 9 10 10 10 10 10 10 10 10 10 10 11 12 11 12 12 12 11 11 11 11 10 11 9 9 9 9 10 10 10 10 10 10 10 10 10
17 16 15 14 13 12 10 9 9 10 9 10 10 10 10 10 10 10 10 11 11 12 12 12 11 11 12 11 10 10 11 11 10 9 10 10 10 10 10 10 10 10 10
16 16 15 14 13 12 11 10 9 9 9 9 10 10 10 10 10 10 10 10 10 10 11 11 11 11 11 11 11 11 11 11 11 11 10 10 10 11 10 10 10 10 10
16 15 15 13 12 12 11 10 10 9 9 9 9 9 10 9 10 10 10 10 9 10 9 10 10 11 10 11 11 11 11 11 11 11 11 11 11 12 12 11 11 10 11

GFSSE_850_temp_081.txt.gz
Temp
21 21 21 22 21 20 19 18 18 18 18 18 18 18 18 18 18 18 17 17 17 17 17 17 16 16 16 16 15 16 16 15 15 15 15 15 14 15 14 14 14 14 14
22 22 22 22 21 21 20 19 18 18 18 18 19 18 17 18 18 18 17 16 16 16 17 16 16 16 16 16 15 15 15 15 15 15 14 14 14 14 14 14 14 14 14
22 22 22 21 20 20 19 19 18 17 18 18 18 18 17 17 18 17 17 17 16 16 16 16 16 16 16 15 15 15 15 15 14 14 14 14 14 14 14 14 14 14 14
22 22 22 21 20 19 18 18 17 17 17 18 18 18 18 17 17 17 17 16 16 16 16 16 16 16 15 15 15 15 15 15 14 13 13 13 13 13 13 13 13 13 13
22 21 21 21 20 18 18 17 17 17 17 17 17 17 17 17 17 17 17 16 16 16 16 16 15 15 15 15 15 15 15 14 14 14 13 13 13 13 13 13 13 13 13
21 21 20 20 19 18 17 17 17 17 17 17 17 17 17 17 17 16 16 16 16 16 16 15 14 14 14 14 15 15 14 14 14 13 13 13 13 13 13 12 12 12 12
21 20 20 19 18 18 17 16 17 17 17 16 16 16 16 17 15 15 15 15 15 15 15 14 14 14 14 14 14 14 14 13 14 13 12 12 12 12 12 13 13 11 11
21 20 20 19 18 17 17 16 16 16 16 16 16 16 16 15 15 14 14 14 14 14 14 14 14 14 14 14 14 13 13 13 13 13 13 13 12 12 13 13 13 13 12
21 20 19 19 18 17 16 16 16 15 15 15 15 15 14 13 14 13 13 13 14 14 14 14 13 13 13 13 13 13 13 13 13 12 12 12 12 12 13 13 13 13 12
21 19 18 18 18 17 16 15 15 14 14 14 14 14 14 14 15 15 14 12 12 14 13 13 13 13 13 13 13 12 12 12 12 12 12 11 10 11 12 12 12 12 12
20 19 18 18 17 17 16 15 14 14 14 13 13 13 14 14 15 15 15 13 12 13 12 12 13 13 12 12 12 12 12 12 12 12 11 10 9 9 8 11 11 11 11
21 19 19 17 17 17 16 15 14 14 13 13 13 13 13 13 14 14 14 13 12 12 12 13 13 12 11 11 11 11 11 11 11 11 10 9 9 8 9 9 10 9 10
20 19 18 18 17 17 16 15 14 14 13 14 13 12 12 13 13 12 12 13 12 11 11 12 12 12 11 11 11 11 11 11 11 10 9 8 9 9 8 7 10 8 9
19 18 18 18 17 16 15 14 13 13 13 13 13 12 12 13 13 13 12 13 11 12 11 12 12 11 11 12 12 11 11 11 10 10 8 8 8 8 8 9 7 8 9
19 17 17 17 17 16 15 14 12 12 12 12 13 12 12 12 12 12 12 12 11 11 12 12 11 11 11 11 11 11 11 10 11 9 8 8 8 8 8 8 8 8 8
18 17 17 17 16 16 15 13 12 11 12 12 12 12 12 12 11 11 12 11 11 11 11 12 12 11 11 11 11 11 11 11 10 10 8 8 8 8 8 7 7 7 8
19 17 17 17 16 15 15 13 12 11 11 11 11 11 11 11 11 11 11 11 11 11 11 11 11 11 11 11 11 11 11 11 10 10 9 8 8 8 8 7 8 7 7
19 17 16 17 16 15 14 13 11 11 11 11 11 11 11 11 11 11 11 11 11 11 11 11 11 11 11 11 11 10 11 10 10 9 10 9 7 7 8 7 7 10 11
19 18 16 17 16 15 14 12 11 11 11 11 11 11 11 11 11 10 11 11 11 11 11 10 10 11 11 11 11 10 11 10 10 9 10 10 9 7 7 7 8 8 10
18 18 16 16 15 14 13 12 10 11 11 11 11 11 10 10 11 10 11 11 11 10 10 10 10 11 11 11 10 10 9 10 9 9 9 9 9 9 8 7 8 8 9
18 17 17 16 15 14 13 11 10 10 10 10 10 10 11 11 10 10 10 10 11 10 10 10 10 11 10 10 10 10 9 9 9 9 9 8 9 9 9 9 9 9 10
18 18 17 16 15 15 13 11 11 10 10 10 10 10 10 10 10 10 10 10 11 10 10 10 10 10 10 10 10 8 8 8 8 9 9 8 8 9 9 9 10 10 10
18 18 17 17 15 14 13 10 10 9 10 10 10 10 10 10 10 10 10 10 10 10 11 11 10 10 10 10 10 9 8 9 8 8 9 8 9 9 10 9 9 10 11
18 17 17 16 15 14 12 10 10 9 9 10 10 10 10 10 10 10 10 10 10 11 11 10 10 10 10 10 10 10 10 10 10 8 9 9 9 9 9 10 10 9 10
16 17 17 16 15 14 12 12 10 9 9 10 10 11 10 10 9 9 10 10 10 10 10 10 10 10 10 10 10 10 10 11 11 11 10 11 10 10 10 10 11 11 11
16 16 16 16 14 14 12 11 11 9 9 9 9 10 10 10 10 10 10 10 10 10 10 10 11 10 10 10 10 11 10 11 11 11 11 11 11 11 11 11 11 11 12

GFSSE_850_temp_084.txt.gz
Temp
21 22 22 21 21 21 20 19 19 18 18 18 18 18 18 18 18 18 18 18 17 17 16 16 16 16 16 16 16 16 16 16 16 15 15 15 15 15 15 15 14 14 14
22 23 22 22 22 21 20 20 19 18 18 18 18 18 18 18 18 18 18 17 17 17 17 16 16 16 16 16 16 16 16 15 15 15 15 15 15 15 14 14 14 14 14
22 23 23 22 22 22 20 19 19 18 18 18 18 17 18 18 18 17 17 17 17 17 17 17 16 16 16 16 16 16 15 15 15 14 14 13 14 14 14 14 14 14 14
23 23 22 22 21 21 20 19 18 18 18 18 18 17 17 17 17 17 17 17 17 16 16 16 15 15 16 16 16 15 15 15 15 14 13 13 14 14 14 14 14 14 14
22 22 22 21 21 20 19 18 18 18 18 17 17 17 16 17 17 17 17 16 16 16 15 15 15 15 15 15 15 15 14 14 14 14 13 13 13 14 14 14 14 13 13
22 22 21 21 21 20 19 18 18 18 18 17 17 17 16 16 16 16 16 16 15 15 15 15 15 15 15 15 15 15 14 14 14 14 13 13 13 13 13 13 13 13 13
22 21 21 21 20 20 19 18 17 17 17 17 17 16 16 15 16 16 16 15 16 15 15 15 15 14 15 15 15 14 14 14 13 13 12 13 13 13 13 13 13 13 13
21 21 21 21 20 20 18 18 17 17 17 17 17 16 16 16 15 14 14 14 14 14 14 14 14 14 14 14 14 14 14 13 13 13 13 12 13 13 13 13 13 13 12
21 20 20 20 20 19 18 17 17 16 16 16 16 15 15 14 14 14 14 13 14 13 13 14 14 14 14 14 14 14 14 13 13 12 12 12 12 12 12 13 14 13 13
21 20 20 20 19 18 18 17 16 16 15 15 15 15 14 14 14 14 14 13 14 13 13 13 14 13 13 13 13 13 13 13 13 12 12 12 11 12 13 13 13 13 13
21 20 19 19 19 18 17 17 16 15 15 14 14 14 14 14 14 13 14 14 13 14 13 13 13 13 13 13 13 13 12 12 12 12 12 11 11 11 12 13 13 13 13
18 18 18 19 19 18 17 16 15 15 15 14 14 14 14 14 14 13 13 13 14 14 14 13 13 13 13 12 12 12 12 12 12 12 12 11 10 10 11 12 12 10 12
17 18 18 18 18 17 17 16 14 14 14 14 14 13 13 14 13 13 13 13 14 13 12 11 12 12 12 11 11 11 11 11 12 12 11 10 10 9 9 9 9 9 10
17 19 19 18 17 17 17 16 15 13 14 13 13 13 13 13 12 12 13 13 12 12 11 12 12 12 11 11 11 11 11 12 12 12 10 10 10 9 9 8 8 9 11
17 16 19 18 17 17 16 16 15 14 14 13 13 13 13 13 12 11 11 11 12 12 12 12 12 12 11 11 11 11 11 11 11 11 10 9 9 9 8 8 8 8 9
18 16 19 19 17 16 16 16 15 14 13 13 12 13 13 12 11 11 11 12 12 11 11 11 12 11 11 11 11 11 10 10 10 10 10 9 8 8 8 8 8 8 9
18 16 17 19 18 16 14 14 14 14 12 12 12 12 12 12 12 11 11 11 11 11 11 11 11 11 11 11 11 10 10 10 10 10 10 9 8 8 8 8 8 8 9
18 16 16 18 18 17 13 14 14 14 12 12 12 12 12 12 11 12 11 11 11 11 11 11 11 11 11 11 10 11 10 10 9 9 9 9 8 8 8 8 8 7 8
18 16 16 18 18 17 15 15 14 14 11 11 12 12 11 11 11 11 11 11 11 11 11 12 11 11 11 11 11 11 10 10 9 9 9 9 9 8 8 8 7 7 8
17 16 14 18 17 17 15 15 13 13 11 11 11 12 11 11 11 11 11 11 11 11 11 11 11 11 11 11 11 10 10 9 9 9 9 9 9 9 9 8 7 7 8
16 15 14 17 17 16 15 15 14 11 11 11 11 11 11 11 11 11 10 11 10 11 11 10 11 10 10 10 10 9 9 9 9 9 9 9 9 9 9 9 8 8 9
16 15 16 17 18 16 15 15 14 11 11 11 11 10 10 10 10 10 10 10 11 10 10 10 10 10 10 10 10 9 8 9 8 8 9 9 9 9 8 8 8 9 9
16 15 17 18 17 16 14 15 11 10 10 10 10 10 11 10 10 10 10 10 10 11 10 10 10 10 10 10 11 11 9 11 10 9 9 9 8 8 9 8 8 8 8
16 14 15 16 13 15 15 14 10 10 10 10 10 10 10 10 10 10 10 10 10 10 10 10 10 10 10 10 10 11 12 13 12 10 10 9 9 8 8 9 8 8 8
16 14 12 13 12 15 15 11 10 10 10 10 11 10 10 11 10 10 10 10 10 10 10 10 10 10 9 10 10 10 11 11 12 13 12 11 10 9 9 9 9 8 9
15 13 12 13 13 15 15 11 10 10 9 9 10 10 10 10 10 10 9 10 10 10 10 9 10 10 9 10 10 10 10 10 11 12 12 12 11 10 10 9 9 10 9